This is the latest recevied weather packets stored in our database for station/object G4ZMG. If no packets are shown the sender has not sent any weather packets the latest 10 day(s).
| Time | Temp. | Humidity | Pressure | Rain* | Wind** | Luminosity | Snow |
|---|---|---|---|---|---|---|---|
| 1777841438 | 12.22° C | 92% | 1009.8 hPa | 0.25 mm | - | 0 W/m² | - |
| 1777840826 | 12.22° C | 92% | 1009.7 hPa | 0 mm | - | 0 W/m² | - |
| 1777840208 | 11.67° C | 92% | 1009.5 hPa | 0 mm | - | 0 W/m² | - |
| 1777839644 | 12.22° C | 91% | 1009.5 hPa | 0 mm | - | 0 W/m² | - |
| 1777839025 | 12.22° C | 91% | 1009.3 hPa | 0.25 mm | - | 0 W/m² | - |
| 1777838425 | 12.22° C | 92% | 1009.2 hPa | 0.51 mm | - | 0 W/m² | - |
| 1777837808 | 12.22° C | 91% | 1009 hPa | 0.51 mm | - | 0 W/m² | - |
| 1777837203 | 12.22° C | 91% | 1008.9 hPa | 0.51 mm | - | 0 W/m² | - |
| 1777836629 | 12.22° C | 91% | 1008.9 hPa | 0.51 mm | - | 0 W/m² | - |
| 1777836009 | 12.22° C | 91% | 1008.8 hPa | 0.76 mm | - | 0 W/m² | - |
| 1777835446 | 12.22° C | 90% | 1008.7 hPa | 0.76 mm | - | 0 W/m² | - |
| 1777834825 | 12.78° C | 90% | 1008.7 hPa | 0.76 mm | - | 7 W/m² | - |
| 1777834206 | 12.78° C | 90% | 1008.6 hPa | 1.52 mm | - | 11 W/m² | - |
| 1777833642 | 12.78° C | 89% | 1008.4 hPa | 2.03 mm | - | 12 W/m² | - |
| 1777833025 | 13.33° C | 89% | 1008.3 hPa | 2.79 mm | - | 16 W/m² | - |
| 1777832407 | 13.33° C | 88% | 1008.2 hPa | 4.32 mm | - | 25 W/m² | - |
| 1777831803 | 13.33° C | 87% | 1008.1 hPa | 4.32 mm | - | 28 W/m² | - |
| 1777831206 | 13.89° C | 85% | 1008.1 hPa | 4.06 mm | - | 21 W/m² | - |
| 1777830640 | 14.44° C | 83% | 1008 hPa | 3.56 mm | - | 16 W/m² | - |
| 1777830025 | 15° C | 81% | 1008 hPa | 2.54 mm | - | 18 W/m² | - |
| 1777829446 | 15.56° C | 79% | 1007.9 hPa | 1.78 mm | - | 30 W/m² | - |
| 1777828829 | 15.56° C | 76% | 1007.9 hPa | 0.51 mm | - | 26 W/m² | - |
| 1777828209 | 16.11° C | 73% | 1007.9 hPa | 0 mm | - | 19 W/m² | - |
| 1777827646 | 16.67° C | 72% | 1007.8 hPa | 0 mm | - | 46 W/m² | - |
| 1777827042 | 16.67° C | 72% | 1007.7 hPa | 0 mm | - | 394 W/m² | - |
* Rain latest hour (hover to see other rain measurements)
** Current wind speed in m/s (hover to see current wind gust speed)